Regional Weather Roundup
Issued by NWS

Home | Current Version | Previous Version | Text Only | Print | Product List | Glossary On
Versions: 1 2 3 4 5 6 7 8 9 10 11 12 13 14 15 16 17 18 19 20 21 22 23 24 25 26 27 28 29 30 31 32 33 34 35 36 37 38 39 40 41 42 43 44 45 46 47 48 49 50
000
ASUS45 KPSR 271510
RWRAZ

ARIZONA HOURLY REGIONAL WEATHER ROUNDUP
NATIONAL WEATHER SERVICE PHOENIX AZ
800 AM MST WED JUL 27 2016

NOTE: FAIR INDICATES FEW OR NO CLOUDS BELOW 12,000 FEET WITH NO
SIGNIFICANT WEATHER AND/OR OBSTRUCTIONS TO VISIBILITY.

AZZ001>003-036-271600-
NORTHWEST ARIZONA

CITY           SKY/WX    TMP DP  RH WIND       PRES   REMARKS
BULLHEAD CITY  SUNNY     97  57  26 S3        29.82R
KINGMAN        SUNNY     92  52  25 CALM      30.05R
$$

AZZ004>008-015-016-018-271600-
NORTH CENTRAL ARIZONA

CITY           SKY/WX    TMP DP  RH WIND       PRES   REMARKS
GRAND CANYON   SUNNY     78  48  34 CALM      30.33R
WILLIAMS       SUNNY     73  54  49 CALM      30.41R
PRESCOTT       SUNNY     80  56  43 N3        30.20R
FLAGSTAFF      SUNNY     72  54  53 CALM      30.36R
PAYSON         SUNNY     79  55  44 CALM      30.22S
PAGE           SUNNY     82  43  25 CALM      30.13R
$$

AZZ009>014-017-271600-
NORTHEAST ARIZONA

CITY           SKY/WX    TMP DP  RH WIND       PRES   REMARKS
WINSLOW        SUNNY     78  51  38 CALM      30.19S
SAINT JOHNS    SUNNY     75  54  47 CALM      30.24R
WINDOW ROCK    SUNNY     71  51  49 CALM      30.34S
SHOW LOW       SUNNY     73  50  43 S9        30.31S
$$

AZZ023-271600-
GREATER PHOENIX AREA

CITY           SKY/WX    TMP DP  RH WIND       PRES   REMARKS
PHOENIX        MOSUNNY   96  62  32 SE5       29.87R
BUCKEYE        SUNNY     93  57  29 CALM      29.89R
GLENDALE       MOSUNNY   95  61  31 SE7       29.89R
LUKE AFB       SUNNY     96  61  31 CALM      29.87R
DEER VALLEY    SUNNY     94  61  33 SE5       29.90R
SCOTTSDALE     SUNNY     93  60  33 SE5       29.92R
MESA-FALCON    MOSUNNY  N/A N/A N/A VRB6      29.88R
MESA-GATEWAY   MOSUNNY   90  61  37 S10       29.92R
CHANDLER       PTSUNNY   93  64  38 VRB6      29.90R
$$

AZZ027-028-271600-
SOUTHWEST MARICOPA COUNTY AND PINAL COUNTY

CITY           SKY/WX    TMP DP  RH WIND       PRES   REMARKS
CASA GRANDE    SUNNY     90  63  40 S7        29.94R
GILA BEND      SUNNY     95  58  28 S5        29.87R
$$

AZZ503-504-507>509-271600-
SOUTHEAST ARIZONA

CITY           SKY/WX    TMP DP  RH WIND       PRES   REMARKS
TUCSON         MOSUNNY   85  66  53 SE6       30.04R
DAVIS-MONTHAN  PTSUNNY   84  66  55 NE5       30.03S
RYAN FIELD     SUNNY     86  64  48 E6        30.02S
NOGALES        PTSUNNY   76  66  71 CALM      30.13R
SIERRA VISTA   CLOUDY    78  56  46 CALM      30.20R
DOUGLAS        CLOUDY    75  64  68 CALM      30.15R
SAFFORD        SUNNY     86  60  41 E7        30.05S
$$

AZZ020-021-025-026-031-271600-
SOUTHWEST ARIZONA

CITY           SKY/WX    TMP DP  RH WIND       PRES   REMARKS
YUMA           MOSUNNY   94  60  32 VRB3      29.80R
$$

CAZ031-033-041-043-047-048-061-271600-
SOUTHERN CALIFORNIA

CITY           SKY/WX    TMP DP  RH WIND       PRES   REMARKS
DOWNTOWN L.A.  SUNNY     74  64  71 CALM      29.90R
L.A. AIRPORT   MOSUNNY   71  65  81 W7        29.91R
SAN DIEGO      PTSUNNY   70  67  90 CALM      29.93R
BURBANK        SUNNY     76  58  53 CALM      29.92R
ONTARIO        MOSUNNY   79  50  36 CALM      29.93R
RIVERSIDE      SUNNY     78  49  35 CALM      29.92S
PALM SPRINGS   SUNNY     93  54  26 SE6       29.84R
EL CENTRO NAS  MOSUNNY   90  70  51 CALM      29.79R
IMPERIAL       SUNNY     91  74  57 E3        29.77R HX 100
BLYTHE         SUNNY     94  61  33 S12       29.81R
NEEDLES        SUNNY    101  60  25 E3        29.83R HX 101
$$

NVZ020-UTZ003-271600-
SOUTHERN NEVADA-UTAH

CITY           SKY/WX    TMP DP  RH WIND       PRES   REMARKS
LAS VEGAS      MOSUNNY   96  42  15 CALM      29.88R
SALT LAKE CITY SUNNY     82  39  21 SE5       30.12R
$$

NMZ009-TXZ055-271600-
NEW MEXICO-WEST TEXAS

CITY           SKY/WX    TMP DP  RH WIND       PRES   REMARKS
ALBUQUERQUE    MOSUNNY   76  59  55 VRB6      30.25S
EL PASO        CLOUDY    77  64  64 N7        30.13R
$$


........................KEY........................
SKY/WX - SKY CONDITION/WEATHER
TMP    - TEMPERATURE IN FAHRENHEIT
DP     - DEW POINT IN FAHRENHEIT
RH     - RELATIVE HUMIDITY IN PERCENT
WIND   - DIRECTION AND SPEED IN MILES PER HOUR (MPH)
VRB    - VARIABLE WIND DIRECTION
PRES   - MEAN SEA LEVEL PRESSURE IN INCHES OF MERCURY
         F - FALLING PRESSURE   R - RISING PRESSURE
         S - STEADY PRESSURE
VSB    - VISIBILITY IN MILES
HX     - HEAT INDEX IN FAHRENHEIT
WCI    - WIND CHILL INDEX IN FAHRENHEIT
TC     - TEMPERATURE IN CELSIUS WHICH IS ALSO KNOWN AS
         TEMPERATURE IN CENTIGRADE
AFB    - AIR FORCE BASE
         LUKE AFB IS LUKE AIR FORCE BASE
         DAVIS-MONTHAN IS DAVIS-MONTHAN AIR FORCE BASE
NAS    - NAVAL AIR STATION
         EL CENTRO NAS IS EL CENTRO NAVAL AIR STATION
N/A    - NOT AVAILABLE




USA.gov is the U.S. government's official web portal to all federal, state and local government web resources and services.